Lapse_Rate
6.3 6.5 6.5 6.5 6.5 6.5 6.5 6.5 6.5 6.5 6.5 6.5 6.5 6.5 6.5 6.4 6.3 6.3 6.3 6.4 6.4 6.3 5.9 6.0 5.8 5.0 4.0 5.0 4.6 3.8 3.3 3.3 3.7 3.1 3.2 3.4 3.5 3.5 4.7 5.3 5.6 6.0 6.2 5.6
6.5 6.5 6.5 6.5 6.5 6.5 6.5 6.5 6.5 6.5 6.5 6.5 6.5 6.5 6.5 6.5 6.5 6.3 6.3 6.4 6.5 6.6 6.3 5.5 5.2 4.7 3.9 4.6 4.3 4.1 3.8 3.7 3.8 3.3 3.3 3.2 2.9 3.3 5.5 4.3 5.1 6.7 6.1 6.1
6.5 6.5 6.5 6.5 6.5 6.5 6.5 6.5 6.5 6.5 6.5 6.5 6.5 6.5 6.5 6.5 6.3 6.3 6.4 6.6 6.7 6.6 6.5 5.6 5.2 5.1 3.6 4.3 4.2 4.1 4.0 3.9 4.0 3.8 4.3 4.2 4.3 4.1 4.6 5.4 5.7 6.1 6.6 6.1
6.5 6.4 6.5 6.5 6.5 6.5 6.5 6.5 6.5 6.5 6.5 6.5 6.5 6.5 6.5 6.5 6.5 6.5 6.5 5.8 5.9 6.3 6.5 5.8 4.9 4.3 3.3 4.1 4.1 4.2 3.9 4.0 4.6 4.1 3.9 4.3 4.0 3.3 6.0 5.6 5.2 5.7 6.5 6.1
6.5 6.5 6.5 6.5 6.5 6.5 6.5 6.5 6.5 6.5 6.5 6.5 6.5 6.5 6.5 6.5 6.5 6.5 6.5 6.5 6.1 5.3 5.0 4.1 4.5 4.5 4.1 4.0 3.3 3.8 3.8 4.0 5.0 4.4 4.7 4.5 6.0 3.4 6.8 6.7 6.2 5.3 5.8 5.8
6.5 6.3 6.5 6.5 6.5 6.5 6.5 6.5 6.5 6.5 6.5 6.5 6.5 6.5 6.5 6.5 6.5 6.5 6.5 6.5 6.4 5.7 4.3 3.3 3.9 3.8 3.2 2.8 3.3 3.5 4.4 4.5 5.1 4.4 4.9 4.5 4.0 5.2 5.2 5.7 5.6 5.7 5.3 5.0
6.5 6.5 6.5 6.5 6.5 6.5 6.5 6.5 6.5 6.5 6.5 6.5 6.5 6.5 6.5 6.5 6.5 6.5 6.5 6.6 6.2 5.3 4.4 3.5 3.5 3.3 3.6 3.2 3.4 4.1 5.3 5.7 4.0 4.8 4.9 4.1 3.3 5.5 5.2 4.6 4.6 5.8 5.3 4.8
6.5 6.5 6.5 6.5 6.5 6.5 6.5 6.5 6.5 6.5 6.5 6.5 6.5 6.5 6.5 6.5 6.6 6.9 7.1 6.9 6.8 5.3 4.7 4.0 4.1 3.6 3.9 4.2 4.0 4.6 5.4 5.8 5.2 5.5 4.6 4.8 4.9 4.9 5.0 5.3 5.0 5.3 5.0 5.2
6.5 6.5 6.5 6.5 6.5 6.5 6.5 6.5 6.5 6.5 6.5 6.5 6.5 6.5 6.5 6.5 6.5 6.5 6.7 7.1 6.9 6.7 5.3 4.6 4.3 3.0 3.3 3.7 4.9 5.5 6.0 6.2 5.6 5.2 4.5 4.3 4.9 4.4 4.8 4.7 4.5 4.8 4.8 4.9
6.5 6.5 6.5 6.5 6.6 6.5 6.5 6.5 6.5 6.5 6.5 6.5 6.5 6.5 6.5 6.5 6.5 6.5 6.5 6.6 7.0 7.2 6.0 4.5 3.5 3.1 3.9 5.1 5.1 5.6 5.2 5.7 5.1 5.2 4.0 3.3 3.5 5.2 4.9 5.3 5.2 4.7 4.7 4.3
6.5 6.5 6.5 6.5 6.5 6.5 6.5 6.5 6.5 6.5 6.5 6.5 6.5 6.5 6.5 6.5 6.5 6.5 6.5 6.8 7.0 6.5 6.2 5.0 4.1 4.9 5.5 5.7 6.2 5.2 4.7 4.5 4.8 5.4 4.3 4.3 3.0 5.0 5.2 4.9 5.6 4.9 4.8 4.0
6.5 6.5 6.5 6.5 6.5 6.5 6.5 6.5 6.5 6.5 6.5 6.5 6.5 6.5 6.5 6.5 6.5 6.6 6.7 6.9 6.9 6.4 6.3 4.8 4.9 5.6 5.6 5.9 5.0 4.5 4.1 4.5 4.7 5.2 5.2 5.2 5.7 5.4 5.1 4.6 4.9 4.7 4.5 4.5
6.5 6.5 6.5 6.5 6.5 6.5 6.5 6.5 6.5 6.5 6.5 6.5 6.5 6.5 6.5 6.5 6.5 6.8 6.7 6.8 6.8 6.5 5.6 5.7 5.8 6.3 5.7 5.8 5.7 5.4 5.3 5.1 4.8 4.5 4.7 4.8 4.2 5.3 5.0 4.5 4.2 4.2 3.9 3.5
6.4 6.5 6.5 6.5 6.5 6.5 6.5 6.5 6.5 6.5 6.5 6.5 6.5 6.5 6.5 6.5 6.5 6.5 6.8 6.8 6.9 6.7 6.2 6.1 5.8 4.7 4.4 4.2 4.1 4.1 5.7 5.2 4.9 4.9 5.2 5.2 4.5 4.8 4.4 4.0 4.1 3.8 4.5 4.2
6.5 6.5 6.5 6.5 6.5 6.5 6.5 6.5 6.5 6.5 6.5 6.5 6.5 6.5 6.5 6.5 6.5 6.6 6.9 7.0 7.0 6.8 6.7 6.2 5.8 4.8 3.7 3.1 3.1 3.1 3.0 3.3 4.8 4.2 4.3 4.3 4.5 4.3 3.9 3.8 4.0 4.2 4.0 3.8
6.5 6.5 6.5 6.5 6.5 6.5 6.5 6.5 6.5 6.5 6.5 6.5 6.5 6.5 6.5 6.8 6.9 6.8 6.8 6.9 6.8 6.8 6.7 6.5 4.9 4.5 3.3 3.2 3.1 2.8 2.6 2.4 2.8 2.7 2.6 2.7 2.5 1.9 2.0 1.8 2.0 2.2 2.0 2.1
6.5 6.5 6.5 6.5 6.5 6.5 6.5 6.5 6.5 6.5 6.5 6.5 6.5 6.5 6.5 6.5 6.5 6.8 6.7 6.8 6.7 6.6 6.4 6.3 6.2 5.0 3.6 3.0 3.0 3.0 3.3 3.2 2.8 2.4 2.1 1.9 1.8 1.5 1.5 1.5 1.4 1.2 1.0 1.0
6.5 6.5 6.5 6.5 6.5 6.5 6.5 6.5 6.5 6.5 6.5 6.5 6.5 6.5 6.5 6.5 6.4 7.1 6.9 6.5 6.1 5.5 4.8 4.7 5.0 4.5 3.9 3.9 3.8 3.6 3.6 3.6 3.4 3.0 2.6 2.2 2.0 1.8 1.8 1.9 1.3 1.0 0.7 0.6
6.5 6.5 6.5 6.5 6.5 6.5 6.5 6.5 6.5 6.5 6.5 6.5 6.5 6.5 6.2 6.1 6.1 6.7 6.6 6.1 5.3 4.8 4.6 4.0 3.7 3.9 3.0 2.4 3.1 2.8 2.6 2.5 2.6 2.9 2.9 2.8 2.4 1.9 1.5 1.1 0.6 0.4 0.8 0.6
6.5 6.5 6.5 6.5 6.5 6.5 6.5 6.5 6.2 6.4 6.5 6.5 6.4 6.4 6.2 6.0 6.5 6.5 5.8 5.2 4.1 3.7 3.2 2.8 2.8 2.9 2.6 2.2 2.1 1.4 1.5 1.6 1.8 1.8 1.9 1.9 2.1 1.8 1.7 1.3 0.6 -0.1 0.4 0.4
6.5 6.5 6.5 6.5 6.5 6.5 6.5 6.4 6.1 6.5 6.5 6.2 5.7 5.6 5.3 6.5 5.8 5.7 5.2 4.4 3.4 2.8 2.4 1.6 1.2 0.9 1.3 1.5 1.3 0.8 1.2 1.2 1.7 1.3 1.2 0.9 0.7 0.7 0.7 1.3 0.9 0.3 -0.4 0.3
6.5 6.5 6.5 6.5 6.5 6.5 5.6 6.4 6.5 6.1 5.5 4.8 5.2 5.2 4.9 5.0 5.3 4.9 4.5 3.9 3.4 3.0 2.7 2.2 1.5 1.1 0.9 0.8 1.1 0.6 0.6 1.5 1.7 1.4 0.8 0.3 -0.0 0.2 -0.1 -0.5 -0.6 -0.1 0.6 1.2
6.5 6.5 6.5 6.5 6.5 5.9 5.6 5.6 4.9 3.9 4.3 4.9 4.4 4.6 4.4 4.6 5.1 4.8 3.7 3.3 2.7 2.4 1.9 1.2 0.6 0.4 0.6 0.3 0.3 0.5 0.5 1.6 1.3 0.7 0.4 0.3 0.5 0.5 0.7 0.5 0.3 0.3 0.5 0.6
6.5 5.5 6.5 6.5 6.5 6.1 5.3 5.4 4.6 4.3 4.0 4.3 4.3 4.2 4.4 4.5 4.5 4.4 3.9 3.4 3.4 2.9 1.9 2.0 1.7 1.2 0.4 0.1 0.1 -0.3 -0.0 0.4 0.8 0.9 0.7 0.6 1.0 0.9 0.7 1.4 2.0 2.1 2.1 2.2
5.9 6.0 6.5 6.5 6.4 5.9 4.8 4.1 3.6 3.9 3.6 4.4 4.8 4.5 4.4 4.3 4.4 4.2 3.4 3.3 2.9 2.7 2.5 2.2 1.8 1.6 1.6 1.6 1.2 0.5 0.2 0.6 0.7 0.3 0.5 0.5 0.5 0.7 1.0 1.5 3.0 3.6 3.5 3.6
4.8 6.5 6.5 6.5 4.9 4.7 4.4 3.3 3.4 3.2 3.4 3.5 4.1 4.4 4.7 4.2 4.0 4.0 3.1 2.6 2.5 2.4 2.1 2.1 2.3 2.3 1.9 1.4 0.6 0.2 0.5 0.7 0.9 0.5 0.7 1.1 0.5 0.2 0.6 0.8 1.1 2.7 3.8 4.4
Wind_Speed
2 2 7 9 9 6 4 5 11 17 13 12 20 24 26 21 18 21 21 21 19 19 18 17 17 14 14 16 16 16 14 10 6 3 6 8 10 10 8 8 19 22 23 25
3 8 11 9 8 8 8 11 18 15 12 6 15 28 24 24 23 21 23 22 23 21 17 16 16 16 13 17 17 17 17 14 11 6 7 4 8 9 9 11 12 23 24 25
5 5 2 5 7 7 10 8 16 15 17 9 12 15 8 6 9 15 20 24 21 20 18 15 15 18 13 15 16 17 17 15 14 14 8 8 8 7 11 10 12 14 24 25
5 7 8 9 9 7 8 10 17 10 6 3 5 8 8 6 8 4 9 10 15 17 16 14 13 13 13 16 13 14 14 13 14 14 12 16 10 10 13 16 9 12 21 18
5 4 3 4 6 6 9 5 9 13 11 12 3 5 7 6 8 17 20 14 11 14 15 13 12 12 14 13 12 13 13 12 13 15 15 13 15 9 13 17 19 14 15 18
9 3 4 6 5 10 7 10 11 10 4 3 5 6 6 6 17 24 18 14 13 12 9 9 9 8 7 9 11 10 10 8 11 11 14 15 16 17 10 15 14 11 11 10
5 3 3 3 5 1 1 3 3 4 4 5 2 4 7 10 18 20 19 16 12 10 7 7 7 7 7 9 11 9 11 14 9 13 8 12 5 20 16 16 14 15 10 10
1 5 4 4 5 3 2 3 3 4 2 4 3 7 4 9 17 19 21 13 10 7 6 6 7 8 9 11 10 10 14 14 15 10 8 10 8 7 9 12 13 12 12 12
2 4 1 5 5 2 1 3 2 3 4 2 3 6 3 14 21 21 21 20 10 6 6 7 6 7 8 7 11 13 16 16 15 11 11 10 4 4 10 10 11 10 12 10
1 4 5 4 2 7 5 4 1 2 4 4 4 4 9 22 22 20 21 21 17 11 7 8 8 7 6 7 6 12 14 15 15 13 10 11 11 10 9 10 12 12 10 11
3 1 4 2 2 3 2 2 2 2 1 2 3 3 8 16 17 17 20 19 17 12 9 7 6 3 4 7 11 10 8 9 10 14 12 10 14 13 15 8 10 11 11 12
4 1 3 4 4 3 2 4 4 2 5 2 3 3 14 17 17 13 17 21 18 9 4 6 2 6 8 12 12 10 6 5 6 7 10 11 12 10 14 12 9 10 12 11
1 3 3 6 4 5 6 6 1 3 1 9 3 5 13 17 18 19 19 19 16 18 15 7 7 8 8 12 10 8 6 8 7 10 11 10 10 13 12 10 9 8 8 8
1 4 3 4 4 2 6 12 11 2 3 2 6 7 14 19 20 21 24 23 21 19 19 13 12 16 14 12 11 9 9 7 10 10 10 9 10 10 10 8 8 5 10 9
2 2 3 3 4 8 7 6 8 8 4 4 7 9 12 16 17 20 19 22 26 23 19 19 18 14 16 18 15 13 16 11 11 11 9 9 9 9 7 7 6 5 4 5
4 1 2 5 3 11 7 9 9 7 6 3 5 4 9 11 13 18 20 19 20 21 22 20 22 18 18 15 14 14 13 12 13 11 10 9 10 11 9 7 5 6 5 5
3 2 2 3 3 1 5 6 6 3 6 4 5 3 7 12 16 16 16 18 19 21 20 20 18 17 16 15 12 13 13 13 13 13 12 12 11 11 9 8 9 8 6 5
3 2 1 3 3 3 4 2 1 5 5 6 3 3 1 3 7 15 17 17 16 17 18 16 13 14 14 13 14 13 13 13 13 13 11 10 9 9 9 9 8 8 6 5
1 2 1 2 1 3 2 1 1 3 3 4 4 6 5 2 4 13 16 14 13 13 12 12 12 12 13 14 11 12 13 13 13 12 11 9 8 8 8 8 8 7 5 5
2 3 3 1 2 0 2 1 3 2 3 2 2 5 5 4 7 3 8 9 11 11 9 10 11 10 13 12 11 14 14 13 12 9 8 7 7 7 7 6 5 4 5 4
2 2 2 0 1 5 3 2 1 3 5 1 2 4 4 4 2 1 4 7 7 7 11 10 10 11 11 10 10 13 11 12 7 6 7 8 8 7 6 5 4 4 5 4
2 2 2 1 1 5 6 4 6 4 2 5 3 3 6 5 3 4 5 6 6 7 7 7 7 9 9 9 8 9 10 5 6 7 8 8 7 5 5 6 5 5 5 5
2 5 3 6 4 3 3 4 3 6 6 5 5 4 5 4 2 2 4 5 6 6 5 5 6 9 7 8 8 10 7 6 8 9 7 6 6 6 6 5 5 4 4 3
3 3 3 1 3 5 4 1 2 3 5 5 5 7 7 5 5 4 4 4 3 2 5 4 5 4 6 6 5 6 7 7 7 5 6 7 7 6 5 4 3 3 3 3
5 5 5 4 3 1 6 5 6 5 5 4 3 4 6 6 5 5 3 4 4 4 3 3 5 4 4 4 5 5 6 6 7 7 6 5 5 5 5 4 4 4 4 4
6 7 5 6 9 6 8 10 7 8 7 7 6 4 3 5 6 3 3 2 0 2 2 3 3 3 3 3 4 5 4 4 4 5 5 6 5 4 4 4 4 9 11 11
Wind_Direction
177 133 223 221 210 223 230 248 267 274 278 276 266 268 273 270 255 253 249 249 247 241 241 237 240 239 206 214 210 200 196 200 183 167 171 174 182 201 213 196 198 184 180 179
21 247 235 223 219 227 245 269 273 278 273 245 275 276 271 268 259 250 250 248 242 243 238 234 239 243 202 208 208 204 200 196 197 192 190 175 181 189 201 183 217 189 181 181
185 243 360 211 253 250 250 249 270 268 304 272 275 276 259 250 239 248 249 246 244 239 233 230 231 236 207 205 200 196 195 192 194 201 190 191 201 188 200 204 192 192 187 182
236 255 243 264 255 224 269 236 250 268 298 268 60 295 281 300 318 345 334 293 249 239 242 240 230 223 207 208 199 197 194 189 201 194 186 192 199 196 204 198 192 180 183 181
259 293 295 270 246 169 238 224 238 277 263 293 265 242 277 355 339 328 314 306 295 236 228 226 231 216 212 200 190 193 194 193 197 202 194 194 199 181 199 186 176 185 177 181
241 227 272 230 254 233 265 291 279 268 265 260 227 178 287 343 326 320 311 296 291 285 230 223 220 207 198 191 188 187 190 194 202 213 192 186 187 174 188 166 167 179 176 172
327 233 262 217 279 310 184 280 329 355 8 237 223 215 261 332 323 309 295 293 289 290 259 238 241 213 192 194 193 184 187 204 194 189 193 179 137 180 175 163 169 174 176 177
4 332 196 159 228 270 273 209 166 258 311 276 4 330 291 325 315 323 329 266 271 294 300 273 233 182 202 195 190 188 192 196 189 184 171 174 180 175 163 168 168 173 175 175
282 285 332 222 224 212 256 231 216 265 226 271 293 286 288 329 336 342 345 341 330 303 272 266 239 203 215 195 192 195 196 185 175 163 168 157 112 280 168 178 174 171 172 169
223 290 227 270 224 206 233 325 315 239 335 335 292 311 323 333 333 334 336 326 315 290 260 236 227 201 216 207 168 166 167 171 163 166 178 164 157 215 201 179 175 169 167 161
185 199 287 270 357 315 326 318 259 264 319 313 310 334 333 324 322 323 323 321 320 297 260 242 239 234 206 156 146 132 156 138 172 186 201 172 176 186 181 172 176 169 165 166
186 208 301 264 271 257 182 3 336 30 356 319 303 340 341 328 325 328 333 332 335 356 197 216 204 170 136 162 117 118 89 111 119 143 145 163 198 168 172 161 154 169 167 172
321 347 348 343 356 27 36 13 12 307 63 12 350 326 330 332 343 349 349 357 9 25 55 78 102 154 128 111 112 128 132 127 112 99 101 97 70 146 124 127 144 143 156 161
229 37 35 95 64 347 53 28 28 50 51 338 14 320 341 346 349 356 356 4 26 31 44 51 87 75 76 73 77 60 135 111 102 84 85 95 92 93 92 110 106 129 160 156
103 85 48 92 98 68 68 43 31 55 19 59 342 2 350 352 352 1 4 6 19 27 35 42 52 62 64 59 58 52 61 55 95 77 73 81 84 87 84 85 100 123 111 134
2 111 101 178 125 84 58 12 34 28 11 47 340 23 2 359 4 2 11 8 23 33 34 37 42 44 48 50 54 54 55 61 71 69 66 66 65 64 62 68 74 74 72 80
25 57 53 278 299 12 37 348 22 49 20 339 11 346 341 24 18 6 4 16 18 24 31 34 39 43 45 42 47 53 61 66 66 65 56 56 57 60 58 57 59 52 47 59
13 78 148 271 16 47 241 223 140 79 35 2 343 270 59 54 41 17 15 13 18 19 25 25 29 34 45 48 48 51 53 61 60 59 58 59 67 77 79 73 63 53 42 40
68 119 58 102 38 292 311 242 323 51 329 338 323 334 276 275 333 23 14 12 16 22 24 23 25 32 36 42 45 61 61 58 56 52 53 53 61 64 62 65 63 52 52 50
98 66 114 95 87 279 240 202 106 293 329 358 39 21 35 7 50 3 343 9 23 22 29 28 24 34 37 30 39 53 49 51 53 53 53 53 56 62 71 74 73 88 87 64
351 351 108 63 178 285 226 158 68 93 242 111 61 38 33 67 122 146 30 26 21 26 29 17 30 42 25 17 41 49 43 44 34 46 59 57 53 67 70 68 55 68 86 100
181 139 222 127 83 293 164 111 164 193 109 137 126 122 103 117 94 49 45 43 52 51 39 32 46 41 30 23 54 59 50 15 37 42 48 50 47 49 45 50 37 45 56 58
251 185 196 182 223 262 239 224 199 161 147 166 145 166 145 127 93 74 50 39 42 45 45 41 33 47 23 26 25 46 20 20 33 35 29 45 44 40 35 55 44 33 23 50
244 175 201 60 233 226 215 235 180 156 150 157 151 156 164 150 162 146 150 121 105 62 50 45 71 75 52 30 39 43 22 25 50 56 31 33 34 32 27 26 37 59 46 14
210 142 180 253 242 23 266 229 180 159 138 138 136 163 173 160 177 177 178 177 161 136 127 108 84 76 60 39 41 24 23 26 40 40 26 34 38 24 15 28 25 18 27 3
189 185 174 217 194 171 209 195 176 159 175 173 153 142 167 181 198 186 207 199 113 86 110 101 113 139 166 140 79 51 32 55 60 56 31 34 33 19 10 5 5 9 7 1